Weather in Gromovo

Russia / Saint-Petersburg and Leningrad Oblast     60°41′40″N   30°11′12″E
temp.,
°C
wind,
m/s
gust,
m/s
humid.,
%
clouds,
%
prec.,
mm/h
press.,
hPa
HPBL,
m
20 april, tue
tue2000:00+2e298047 0.0 1028173
03:00+1e268898 0.0 1027117
06:00+1e2388100 0.0 102665
09:00+5e3666100 0.0 1025288
12:00+7ese47550 0.0 1023671
15:00+9ese57420 0.0 10221210
18:00+8e36455 0.0 1020501
21:00+3e266971 0.0 1018110
21 april, wed
wed2100:00+3se227628 0.0 101723
03:00+3ese2283100 0.0 101536
06:00+3ese278899 0.0 1013222
09:00+6ese3478100 0.0 1011665
12:00+6ene3467100 0.0 1008846
15:00+6e4471100 0.0 1007803
18:00+5e1278100 0.0 1005514
21:00+3e129199 0.0 1004201
22 april, thu
thu2200:00+3sse019080 0.0 100499
03:00+1ssw22956 0.0 100440
06:00+1sse23966 0.0 100460
09:00+6sse247470 0.0 1005361
12:00+11s355717 0.0 10051249
15:00+14sw354040 0.1 10052105
18:00+13sse144119 0.0 10051395
21:00+7ese27757 0.1 1005131
23 april, fri
fri2300:00+5wsw4991100 0.6 1006458
03:00+5ssw2688100 0.9 1007247
06:00+4sse2691100 0.0 1007150
09:00+7sse2572100 0.0 1007616
12:00+6s2468100 0.6 1007771
15:00+8sse365394 0.7 10071578
18:00+8s3554100 0.3 10081350
21:00+4ese237887 0.4 100849
24 april, sat
sat2400:00+3sse22795 0.0 100827
03:00+2sse2583100 0.0 100894
06:00+1sse238497 0.0 100852
09:00+5sse2466100 0.0 1008512
12:00+8ese3448100 0.0 10081517
15:00+8e435487 0.3 10081105
18:00+6se236795 0.3 1008774
21:00+3e258886 0.4 1008150